User: anonymous   Login
Location: Newark
(34.0131°N, 4.3314°W)
Time: 21:14:45
(UTC+00:00)
Language:

Transit 4A - Orbit

View from above orbital plane
View from above orbital plane
View from above satellite
View from above satellite

Ground track
Ground track

The orbit data is extracted from the following two-line orbital elements,

1   116U 61015A   19290.93527448 -.00000074  00000-0  19567-5 0  9999
2   116  66.8090  83.5056 0076350 184.6085 175.4301 13.91759881958419
Epoch (UTC): 17 October 2019 22:26:47
Eccentricity: 0.0076350
inclination: 66.8090°
perigee height: 867 km
apogee height: 978 km
right ascension of ascending node: 83.5056°
argument of perigee: 184.6085°
revolutions per day: 13.91759881
mean anomaly at epoch: 175.4301°
orbit number at epoch: 95841

The dashed part of the orbit path shows where the satellite is in the earth's shadow,  

DLR